ONEWEB-0116

Last updated on April 25, 2021, 12:02 a.m. UTC

1 48046U 21025E   21114.58336806 -.01091616  00000-0 -44116-1 0  9993
2 48046  87.4221 339.3263 0007607 147.3069 168.7796 15.27700443  1779
UTC
Height (km)
Latitude
Longitude
Inclination
Orbital Period
UTC large
Height (km)
Speed (km/s)
/
Latitude / Longitude
Inclination (degrees)
Orbital Period (minutes)
Azimuth
Elevation
Range (km)
Doppler Factor
iOS Compass Heading
iOS Angle

Next 30 passes for location: Hong Kong

Rise time Rise Azimuth (degrees) Set time Set Azimuth (degrees) Duration Max altitude (degrees)

No matching passes for this satellites